DW2891 Weather Reports


Display with metric or nautical units.
time (UTC)temp
F
wind
direction
speed
MPH
gust
MPH
rain 1hr
in
rain 24hr
in
rain mn
in
humidity
%
barometer
mb
20260510214104 64 133 0.0 0.0 0.00 0.00 0.00 60 1017.2
20260510213604 64 133 0.0 0.0 0.00 0.00 0.00 61 1017.1
20260510213104 64 83 0.0 0.0 0.00 0.00 0.00 59 1017.1
20260510212604 64 83 0.0 0.0 0.00 0.00 0.00 60 1017.1
20260510212104 64 83 1.0 3.0 0.00 0.00 0.00 62 1017.0
20260510211605 64 312 0.0 0.0 0.00 0.00 0.00 59 1017.0
20260510211104 64 305 1.0 2.0 0.00 0.00 0.00 58 1017.1
20260510210604 64 90 0.0 2.0 0.00 0.00 0.00 61 1017.0
20260510210104 63 47 1.0 5.0 0.00 0.00 0.00 60 1017.0
20260510205604 62 31 0.0 0.0 0.00 0.00 0.00 62 1017.0
20260510205104 63 29 0.0 1.0 0.00 0.00 0.00 64 1017.1
20260510204604 64 351 0.0 0.0 0.00 0.00 0.00 58 1017.1
20260510203604 64 303 0.0 10.0 0.00 0.00 0.00 57 1017.0
20260510203104 64 311 0.0 10.0 0.00 0.00 0.00 58 1016.9
20260510202604 65 313 1.0 10.0 0.00 0.00 0.00 54 1016.9
20260510201604 64 85 0.0 0.0 0.00 0.00 0.00 60 1016.9
20260510201105 64 84 1.0 5.0 0.00 0.00 0.00 56 1017.0
20260510200604 64 93 0.0 1.0 0.00 0.00 0.00 55 1016.9
20260510200104 63 95 0.0 0.0 0.00 0.00 0.00 58 1016.9
20260510195605 63 95 0.0 2.0 0.00 0.00 0.00 58 1016.9
20260510195105 62 202 0.0 1.0 0.00 0.00 0.00 57 1016.9
20260510194604 62 203 0.0 3.0 0.00 0.00 0.00 62 1017.0
20260510194104 62 28 0.0 2.0 0.00 0.00 0.00 59 1017.0
20260510193604 62 355 0.0 0.0 0.00 0.00 0.00 61 1017.0
20260510193105 62 355 0.0 0.0 0.00 0.00 0.00 59 1016.8
20260510192604 62 355 0.0 5.0 0.00 0.00 0.00 59 1016.9
20260510192105 63 355 1.0 2.0 0.00 0.00 0.00 57 1016.8
20260510191604 64 346 1.0 6.0 0.00 0.00 0.00 59 1016.8
20260510191104 64 24 1.0 10.0 0.00 0.00 0.00 61 1016.7
20260510190604 64 251 1.0 9.0 0.00 0.00 0.00 57 1016.7
20260510185604 65 338 0.0 2.0 0.00 0.00 0.00 56 1016.6
20260510185104 65 103 0.0 5.0 0.00 0.00 0.00 58 1016.5
20260510184104 64 66 0.0 5.0 0.00 0.00 0.00 56 1016.4
20260510183604 66 57 0.0 3.0 0.00 0.00 0.00 59 1016.4
20260510183104 65 341 2.0 8.0 0.00 0.00 0.00 58 1016.4
20260510182604 64 13 0.0 1.0 0.00 0.00 0.00 63 1016.4
20260510182105 64 13 0.0 3.0 0.00 0.00 0.00 61 1016.4
20260510181104 64 277 0.0 9.0 0.00 0.00 0.00 60 1016.3
20260510180604 64 59 0.0 5.0 0.00 0.00 0.00 56 1016.3
20260510180104 63 337 0.0 1.0 0.00 0.00 0.00 62 1016.2
20260510175104 63 47 0.0 0.0 0.00 0.00 0.00 66 1016.3
20260510174604 63 46 0.0 1.0 0.00 0.00 0.00 65 1016.3
20260510174104 62 47 0.0 2.0 0.00 0.00 0.00 67 1016.1
20260510173604 62 64 0.0 1.0 0.00 0.00 0.00 65 1016.1
20260510173104 61 35 0.0 1.0 0.00 0.00 0.00 62 1016.3
20260510172604 61 33 0.0 0.0 0.00 0.00 0.00 62 1016.1
20260510172104 61 33 0.0 0.0 0.00 0.00 0.00 63 1016.1
20260510171604 62 33 0.0 3.0 0.00 0.00 0.00 59 1016.1
20260510171104 64 33 0.0 2.0 0.00 0.00 0.00 57 1016.1
20260510170604 64 56 0.0 2.0 0.00 0.00 0.00 58 1016.0
20260510170104 63 47 1.0 8.0 0.00 0.00 0.00 56 1015.9
20260510165104 63 355 0.0 0.0 0.00 0.00 0.00 64 1015.9
20260510164604 61 355 0.0 0.0 0.00 0.00 0.00 64 1016.0
20260510164104 61 322 0.0 1.0 0.00 0.00 0.00 62 1016.0
20260510163605 61 315 0.0 3.0 0.00 0.00 0.00 64 1016.1
20260510163104 61 36 0.0 0.0 0.00 0.00 0.00 62 1015.9
20260510162604 62 267 0.0 6.0 0.00 0.00 0.00 63 1016.0
20260510161604 61 33 3.0 9.0 0.00 0.00 0.00 59 1015.8
20260510161104 61 289 3.0 8.0 0.00 0.00 0.00 64 1015.9
20260510160603 60 297 1.0 8.0 0.00 0.00 0.00 63 1015.8
20260510160105 60 76 0.0 5.0 0.00 0.00 0.00 61 1015.8
20260510155604 59 197 0.0 5.0 0.00 0.00 0.00 64 1015.8
20260510155104 59 353 0.0 8.0 0.00 0.00 0.00 67 1015.8
20260510154604 59 342 0.0 6.0 0.00 0.00 0.00 67 1015.8
20260510154104 58 341 0.0 5.0 0.00 0.00 0.00 69 1016.0
20260510153604 58 345 0.0 0.0 0.00 0.00 0.00 77 1015.9
20260510153104 57 345 0.0 0.0 0.00 0.00 0.00 75 1015.8
20260510152604 57 345 0.0 0.0 0.00 0.00 0.00 78 1015.7
20260510152104 56 345 0.0 0.0 0.00 0.00 0.00 78 1015.8
20260510151604 56 345 0.0 6.0 0.00 0.00 0.00 78 1015.8
20260510151104 55 348 0.0 0.0 0.00 0.00 0.00 83 1015.9
20260510150605 55 348 0.0 0.0 0.00 0.00 0.00 84 1015.9
20260510150104 54 348 0.0 0.0 0.00 0.00 0.00 84 1015.7
20260510145104 54 348 0.0 0.0 0.00 0.00 0.00 84 1015.6
20260510144605 53 348 0.0 0.0 0.00 0.00 0.00 84 1015.7
20260510144104 53 348 0.0 0.0 0.00 0.00 0.00 85 1015.7
20260510143604 53 348 0.0 0.0 0.00 0.00 0.00 85 1015.6
20260510143104 53 348 0.0 0.0 0.00 0.00 0.00 85 1015.7
20260510142605 53 348 0.0 0.0 0.00 0.00 0.00 85 1015.6
20260510142104 52 348 0.0 0.0 0.00 0.00 0.00 85 1015.5
20260510141604 52 348 0.0 0.0 0.00 0.00 0.00 84 1015.6
20260510141104 52 138 0.0 0.0 0.00 0.00 0.00 84 1015.6
20260510140604 52 138 0.0 0.0 0.00 0.00 0.00 83 1015.5
20260510140105 52 138 0.0 0.0 0.00 0.00 0.00 83 1015.6
20260510135604 52 138 0.0 0.0 0.00 0.00 0.00 84 1015.6
20260510134604 52 138 0.0 0.0 0.00 0.00 0.00 83 1015.7
20260510133604 52 138 0.0 0.0 0.00 0.00 0.00 82 1015.5
20260510133104 51 138 0.0 0.0 0.00 0.00 0.00 82 1015.4
20260510132104 51 138 0.0 0.0 0.00 0.00 0.00 79 1015.3
20260510131604 51 138 0.0 0.0 0.00 0.00 0.00 80 1015.3
20260510131103 51 138 0.0 0.0 0.00 0.00 0.00 81 1015.3
20260510130603 51 138 0.0 0.0 0.00 0.00 0.00 80 1015.3
20260510130104 51 138 0.0 0.0 0.00 0.00 0.00 80 1015.2
20260510125104 51 138 0.0 0.0 0.00 0.00 0.00 80 1015.2
20260510124604 51 42 0.0 0.0 0.00 0.00 0.00 80 1015.2
20260510124104 51 42 0.0 0.0 0.00 0.00 0.00 79 1015.1
20260510123104 52 42 0.0 0.0 0.00 0.00 0.00 81 1014.8
20260510122605 52 42 0.0 0.0 0.00 0.00 0.00 80 1014.8
20260510122104 52 42 0.0 0.0 0.00 0.00 0.00 79 1014.8
20260510121604 52 42 0.0 0.0 0.00 0.00 0.00 78 1014.9
20260510121104 52 42 0.0 0.0 0.00 0.00 0.00 78 1014.9
20260510120104 52 42 0.0 0.0 0.00 0.00 0.00 80 1015.1
20260510113104 52 42 0.0 0.0 0.00 0.00 0.00 81 1015.2
20260510112604 52 42 0.0 0.0 0.00 0.00 0.00 81 1015.2
20260510112104 52 42 0.0 0.0 0.00 0.00 0.00 82 1015.2
20260510111603 52 42 0.0 0.0 0.00 0.00 0.00 82 1015.2
20260510111104 52 42 0.0 0.0 0.00 0.00 0.00 82 1015.2
20260510110604 52 42 0.0 0.0 0.00 0.00 0.00 82 1015.2
20260510110104 52 42 0.0 0.0 0.00 0.00 0.00 82 1015.2
20260510105604 52 42 0.0 0.0 0.00 0.00 0.00 82 1015.2
20260510105104 52 42 0.0 0.0 0.00 0.00 0.00 83 1015.3
20260510104604 53 42 0.0 0.0 0.00 0.00 0.00 83 1015.2
20260510104104 53 42 0.0 0.0 0.00 0.00 0.00 84 1015.2
20260510103604 53 42 0.0 0.0 0.00 0.00 0.00 83 1015.1
20260510103104 53 42 0.0 0.0 0.00 0.00 0.00 83 1015.2
20260510102603 53 42 0.0 0.0 0.00 0.00 0.00 83 1015.1
20260510102104 53 42 0.0 0.0 0.00 0.00 0.00 83 1015.1
20260510101604 53 42 0.0 0.0 0.00 0.00 0.00 83 1015.0
20260510101103 53 42 0.0 0.0 0.00 0.00 0.00 83 1015.0
20260510100603 53 42 0.0 0.0 0.00 0.00 0.00 83 1014.8
20260510095604 52 42 0.0 0.0 0.00 0.00 0.00 83 1015.1
20260510095103 52 42 0.0 0.0 0.00 0.00 0.00 82 1015.2
20260510094604 52 42 0.0 0.0 0.00 0.00 0.00 83 1015.2
20260510094104 52 42 0.0 0.0 0.00 0.00 0.00 82 1015.1
20260510093104 53 42 0.0 0.0 0.00 0.00 0.00 82 1015.2
20260510092604 53 42 0.0 0.0 0.00 0.00 0.00 82 1015.3
20260510092104 53 42 0.0 0.0 0.00 0.00 0.00 82 1015.0
20260510091604 53 42 0.0 0.0 0.00 0.00 0.00 82 1015.1
20260510091104 53 42 0.0 0.0 0.00 0.00 0.00 82 1015.1
20260510090104 53 42 0.0 0.0 0.00 0.00 0.00 80 1015.4
20260510085604 53 42 0.0 0.0 0.00 0.00 0.00 81 1015.2
20260510085103 53 42 0.0 0.0 0.00 0.00 0.00 81 1015.4
20260510084603 53 42 0.0 0.0 0.00 0.00 0.00 81 1015.3
20260510084104 53 42 0.0 0.0 0.00 0.00 0.00 82 1015.5
20260510083604 53 42 0.0 0.0 0.00 0.00 0.00 81 1015.4
20260510083104 53 42 0.0 0.0 0.00 0.00 0.00 81 1015.2
20260510082604 53 42 0.0 0.0 0.00 0.00 0.00 81 1015.2
20260510082104 54 42 0.0 0.0 0.00 0.00 0.00 81 1015.2
20260510081604 54 42 0.0 0.0 0.00 0.00 0.00 80 1015.2
20260510081103 54 42 0.0 0.0 0.00 0.00 0.00 81 1015.3
20260510080604 54 42 0.0 0.0 0.00 0.00 0.00 80 1015.3
20260510080104 54 42 0.0 0.0 0.00 0.00 0.00 81 1015.3
20260510075604 54 42 0.0 0.0 0.00 0.00 0.00 81 1015.3
20260510075103 54 42 0.0 0.0 0.00 0.00 0.00 80 1015.3
20260510074603 54 42 0.0 0.0 0.00 0.00 0.00 80 1015.3
20260510073604 55 42 0.0 0.0 0.00 0.00 0.00 80 1015.0
20260510073104 55 42 0.0 0.0 0.00 0.00 0.00 81 1015.1
20260510072103 55 42 0.0 0.0 0.00 0.00 0.00 80 1015.2
20260510071604 55 42 0.0 0.0 0.00 0.00 0.00 79 1015.1
20260510071104 55 42 0.0 0.0 0.00 0.00 0.00 80 1015.1
20260510070603 55 42 0.0 0.0 0.00 0.00 0.00 80 1014.9
20260510070104 55 42 0.0 0.0 0.00 0.00 0.00 80 1014.8
20260510065103 55 42 0.0 0.0 0.00 0.00 0.00 80 1015.0
20260510064605 55 42 0.0 0.0 0.00 0.00 0.00 80 1015.1
20260510064104 55 42 0.0 0.0 0.00 0.00 0.00 80 1015.1
20260510063604 55 42 0.0 0.0 0.00 0.00 0.00 80 1015.1
20260510063104 55 42 0.0 0.0 0.00 0.00 0.00 80 1015.2
20260510062605 55 42 0.0 0.0 0.00 0.00 0.00 80 1015.2
20260510062104 55 42 0.0 0.0 0.00 0.00 0.00 80 1015.3
20260510061603 55 42 0.0 0.0 0.00 0.00 0.00 80 1015.2
20260510061104 55 42 0.0 0.0 0.00 0.00 0.00 80 1015.2
20260510060604 55 42 0.0 0.0 0.00 0.00 0.00 80 1015.1
20260510055604 55 42 0.0 0.0 0.00 0.00 0.00 80 1015.2
20260510054605 55 42 0.0 0.0 0.00 0.00 0.00 81 1015.2
20260510054104 55 42 0.0 0.0 0.00 0.00 0.00 80 1015.3
20260510053604 55 42 0.0 0.0 0.00 0.00 0.00 80 1015.2
20260510053103 55 42 0.0 0.0 0.00 0.00 0.00 80 1015.2
20260510052603 55 42 0.0 0.0 0.00 0.00 0.00 81 1015.1
20260510052104 55 42 0.0 0.0 0.00 0.00 0.00 81 1015.1
20260510051604 55 42 0.0 0.0 0.00 0.00 0.00 81 1015.1
20260510051105 55 42 0.0 0.0 0.00 0.00 0.00 81 1015.0
20260510050103 55 42 0.0 0.0 0.00 0.00 0.00 80 1015.1
20260510045604 55 42 0.0 0.0 0.00 0.00 0.00 79 1015.2
20260510045104 56 42 0.0 0.0 0.00 0.00 0.00 79 1015.0
20260510044604 56 42 0.0 0.0 0.00 0.00 0.00 78 1015.1
20260510043105 57 42 0.0 0.0 0.00 0.00 0.00 77 1015.1
20260510042604 57 42 0.0 0.0 0.00 0.00 0.00 76 1015.2
20260510042104 57 42 0.0 0.0 0.00 0.00 0.00 76 1015.2
20260510041603 57 42 0.0 0.0 0.00 0.00 0.00 76 1015.1
20260510041105 58 42 0.0 0.0 0.00 0.00 0.00 75 1015.2
20260510040104 58 42 0.0 0.0 0.00 0.00 0.00 74 1015.1
20260510035604 59 42 0.0 0.0 0.00 0.00 0.00 74 1015.1
20260510035105 59 42 0.0 0.0 0.00 0.00 0.00 73 1015.2
20260510034603 59 42 0.0 0.0 0.00 0.00 0.00 73 1015.2
20260510033604 60 42 0.0 0.0 0.00 0.00 0.00 72 1015.2
20260510032604 61 42 0.0 0.0 0.00 0.00 0.00 71 1015.2
20260510032103 61 42 0.0 0.0 0.00 0.00 0.00 70 1015.2
20260510030103 62 42 0.0 0.0 0.00 0.00 0.00 68 1015.4
20260510025104 63 42 0.0 0.0 0.00 0.00 0.00 69 1015.4
20260510023604 63 42 0.0 0.0 0.00 0.00 0.00 65 1015.3
20260510023104 64 42 0.0 0.0 0.00 0.00 0.00 64 1015.4
20260510022604 64 42 0.0 0.0 0.00 0.00 0.00 64 1015.5
20260510022103 64 42 0.0 0.0 0.00 0.00 0.00 61 1015.5
20260510021104 65 42 0.0 0.0 0.00 0.00 0.00 59 1015.6
20260510020604 65 42 0.0 1.0 0.00 0.00 0.00 58 1015.7
20260510020104 65 42 1.0 6.0 0.00 0.00 0.00 59 1015.8
20260510015603 65 310 0.0 5.0 0.00 0.00 0.00 58 1015.9
20260510015104 65 49 0.0 3.0 0.00 0.00 0.00 58 1015.8
20260510014604 65 321 0.0 1.0 0.00 0.00 0.00 58 1015.9
20260510014104 65 264 0.0 2.0 0.00 0.00 0.00 58 1015.9
20260510013604 66 68 0.0 0.0 0.00 0.00 0.00 58 1015.9
20260510012603 65 227 0.0 0.0 0.00 0.00 0.00 60 1016.2
20260510012104 65 227 0.0 3.0 0.00 0.00 0.00 59 1016.4
20260510011104 65 306 0.0 6.0 0.00 0.00 0.00 58 1016.7
20260510010604 65 212 3.0 8.0 0.00 0.00 0.00 58 1016.7
20260510010104 65 55 1.0 2.0 0.00 0.00 0.00 60 1016.7
20260510004604 65 51 0.0 1.0 0.00 0.00 0.00 60 1016.8
20260510004103 65 51 0.0 5.0 0.00 0.00 0.00 58 1016.9
20260510003604 65 50 0.0 1.0 0.00 0.00 0.00 59 1016.9
20260510002604 65 50 0.0 0.0 0.00 0.00 0.00 58 1016.9
20260510002103 65 50 2.0 6.0 0.00 0.00 0.00 57 1017.0
20260510001603 65 52 0.0 1.0 0.00 0.00 0.00 57 1016.9
20260510001104 65 34 0.0 1.0 0.00 0.00 0.00 58 1017.1
20260510000604 65 34 0.0 3.0 0.00 0.00 0.00 57 1017.3
20260509235603 65 36 0.0 0.0 0.00 0.00 0.00 58 1017.3
20260509235104 65 36 0.0 6.0 0.00 0.00 0.00 57 1017.5
20260509234104 65 40 1.0 5.0 0.00 0.00 0.00 57 1017.5
20260509233604 65 213 2.0 5.0 0.00 0.00 0.00 56 1017.6
20260509230604 66 34 1.0 5.0 0.00 0.00 0.00 56 1018.2
20260509223604 66 57 0.0 5.0 0.00 0.00 0.00 55 1018.6
20260509223103 66 41 1.0 5.0 0.00 0.00 0.00 57 1018.6
20260509222604 65 46 1.0 5.0 0.00 0.00 0.00 59 1018.6
20260509222103 65 92 0.0 3.0 0.00 0.00 0.00 57 1018.9
20260509221104 65 307 0.0 5.0 0.00 0.00 0.00 59 1019.0
20260509220604 65 129 1.0 5.0 0.00 0.00 0.00 60 1019.0
20260509215604 64 45 1.0 2.0 0.00 0.00 0.00 59 1019.2
20260509215105 64 43 0.0 0.0 0.00 0.00 0.00 60 1019.2
20260509214604 65 65 0.0 3.0 0.00 0.00 0.00 60 1019.4